Regional Weather Roundup
Issued by NWS

Home | Current Version | Previous Version | Text Only | Print | Product List | Glossary On
Versions: 1 2 3 4 5 6 7 8 9 10 11 12 13 14 15 16 17 18 19 20 21 22 23 24 25 26 27 28 29 30 31 32 33 34 35 36 37 38 39 40 41 42 43 44 45 46 47 48 49 50
108
ASUS43 KLSX 231157
RWRMO

WEATHER SUMMARY FOR MISSOURI
NATIONAL WEATHER SERVICE SPRINGFIELD MO
700 AM CDT SUN APR 23 2017

NOTE: "FAIR" INDICATES FEW OR NO CLOUDS BELOW 12,000 FEET WITH NO
       SIGNIFICANT WEATHER AND/OR OBSTRUCTIONS TO VISIBILITY.
       CURRENT SKY AND/OR WEATHER CONDITIONS ARE NOT AVAILABLE FOR
       CHILLICOTHE AND FARMINGTON.

MOZ001>031-035>038-043-044-053-054-231300-
...NORTHERN AND WESTERN MISSOURI...

CITY           SKY/WX    TMP DP  RH WIND       PRES   REMARKS
KANSAS CTY INT CLEAR     42  31  64 NE5       30.17R
6HR MIN TEMP:  42; 6HR MAX TEMP:  50;

LEE`S SUMMIT   CLEAR     42  34  73 CALM      30.17R
6HR MIN TEMP:  41; 6HR MAX TEMP:  50;

ST JOSEPH      CLEAR     34  34 100 CALM      30.19R
6HR MIN TEMP:  32; 6HR MAX TEMP:  41; 6HR PCP: TRACE;

CHILLICOTHE      N/A     37  33  85 CALM      30.19R
6HR MIN TEMP:  35; 6HR MAX TEMP:  42;


$$
MOZ066>068-077>081-088>096-101>105-231300-
...SOUTHWEST MISSOURI...

CITY           SKY/WX    TMP DP  RH WIND       PRES   REMARKS
SPRINGFIELD    CLEAR     40  36  86 N3        30.11R
6HR MIN TEMP:  38; 6HR MAX TEMP:  48;

JOPLIN         CLEAR     38  37  97 N6        30.14S
6HR MIN TEMP:  38; 6HR MAX TEMP:  46;

BRANSON        CLEAR     41  39  93 CALM      30.11R

$$
MOZ032>034-039>042-045>050-055>058-069>072-231300-
...CENTRAL MISSOURI...

CITY           SKY/WX    TMP DP  RH WIND       PRES   REMARKS
COLUMBIA       NOT AVBL
JEFFERSON CITY CLEAR     41  34  76 W6        30.14R
6HR MIN TEMP:  40; 6HR MAX TEMP:  53;

ROLLA          CLEAR     39  33  79 N6        30.10R
6HR MIN TEMP:  38; 6HR MAX TEMP:  45;


$$
MOZ051-052-059>065-231300-
...EAST CENTRAL MISSOURI...

CITY           SKY/WX    TMP DP  RH WIND       PRES   REMARKS
ST LOUIS INTL  PTCLDY    46  30  53 N8        30.11R
6HR MIN TEMP:  45; 6HR MAX TEMP:  51;


$$
MOZ072>076-082>087-097>100-106>115-231300-
...SOUTH CENTRAL AND SOUTHEAST MISSOURI...

CITY           SKY/WX    TMP DP  RH WIND       PRES   REMARKS
CAPE GIRARDEAU CLOUDY    48  37  65 N13       30.00R
6HR MIN TEMP:  48; 6HR MAX TEMP:  50; 6HR PCP:  0.02;

POPLAR BLUFF   CLOUDY    48  40  73 N13       30.01R
6HR MIN TEMP:  48; 6HR MAX TEMP:  50; 6HR PCP: TRACE;

WEST PLAINS    CLEAR     44  35  70 N9        30.07R
6HR MIN TEMP:  43; 6HR MAX TEMP:  49;


$$



USA.gov is the U.S. government's official web portal to all federal, state and local government web resources and services.